Simultaneous Nadir Overpasses (SNOs) Predictions

Prediction of SNOs between GOES-17 and METOP-C Satellite Orbit:

Table of predicted SNOs for the next 14.0 days since TLE Epoch: 5/2/2020
Index Date Time (GOES-17) GOES-17 Lat,Lon METOP-C Lat,Lon Distance(km) Time Diff (sec)
1 05/02/2020 06:25:44 -0.03,-137.19 0.69,-133.99 365.70 80
2 05/03/2020 18:44:36 0.03,-137.20 0.33,-138.55 153.50 80
3 05/04/2020 18:26:36 0.03,-137.19 -0.77,-133.55 415.09 80
4 05/06/2020 06:45:37 -0.03,-137.18 -0.27,-138.15 111.04 80
5 05/07/2020 06:22:19 -0.03,-137.17 0.89,-133.16 457.06 80
6 05/08/2020 18:41:10 0.02,-137.16 0.12,-137.72 63.47 80
7 05/11/2020 06:42:12 -0.02,-137.12 -0.06,-137.32 23.17 80
8 05/13/2020 18:40:24 0.01,-137.08 -0.02,-136.88 22.61 80




NCC Satellite Simultaneous Nadir Overpasses (SNOs) Prediction Service
